Airfield :
LOGIN :

Register | Disclaimer

   EN    FR    IT 

 










Legend :    VFR   Marginal VFR   IFR   Intensive IFR   Very Intensive IFR
Visi :
Ceiling :
>= 8 km
>= 3000ft
5 to 8 km
1000 to 3000 ft
1500m to 5 km
500 to 1000 ft
800 to 1500m
200 to 500 ft
< 800m
< 200 ft
Symbols :   Thunderstorms  Fog  Heavy snow  Heavy precipitations  Wind > 20 kt
SIGMETs :     Misc.  Thunderstorms  Icing  Turbulence  Mountain Waves  Volcanic Ashes







- Airport Elevation : 15 ft
- IATA code : FCO


LIRF - Roma Leonardo da Vinci Fiumicino

CURRENT METAR :
  • 170820Z 04007KT CAVOK 12/05 Q1019 NOSIG

EXPIRED METARs :
  • 170750Z 06004KT CAVOK 10/04 Q1019 NOSIG
  • 170720Z 06006KT CAVOK 09/03 Q1019 NOSIG
  • 170650Z 05005KT CAVOK 08/03 Q1019 NOSIG
  • 170620Z 04007KT CAVOK 07/03 Q1018 NOSIG
  • 170550Z 06005KT CAVOK 05/02 Q1018 NOSIG

TAF TAF LIRF
Valid from the 17 at 06:00 until the 18 at 12:00 UTC


170500Z 1706/1812 04012KT 9999 FEW040
No reported NOTAMs for that airfield.



MET'MAP, your aeronautical weather chart ! - Copyright ORBIFLY December 2007 - Disclaimer

ORBIFLY MET'MAP TEAM :

Programming & Development : Alexandra Zaïnal
Concept & Development : Baudouin d'Aumeries
Co-Development & Prog : Marc-Olivier Méhu
Technical & hardware support : Manuel Goepfert

Contact : metmap@orbifly.com




SOURCES & CREDITS :

   NOAA